Wind_Speed
41 40 39 37 35 33 33 32 31 31 30 28 27 26 26 25 25 25 25 26 26 26 27 27 28 29 29 29 29 30 31 33 34 36 37 38 39 39
37 37 36 35 33 31 30 29 28 28 27 26 25 25 25 25 25 26 26 27 28 28 28 29 30 30 30 31 31 32 33 34 35 37 38 39 40 39
33 32 31 31 29 28 28 26 25 24 24 23 23 23 24 24 25 26 28 29 29 30 30 31 32 32 33 33 33 34 34 35 37 38 39 40 41 41
29 29 29 29 29 28 27 25 24 23 22 22 22 23 24 25 26 27 28 29 30 31 32 32 33 34 35 35 35 36 36 37 38 39 40 41 42 42
25 25 26 26 26 25 24 24 23 22 22 22 22 23 24 25 26 27 28 29 30 32 33 34 35 35 36 36 37 37 38 39 39 40 41 42 42 43
24 23 24 24 24 22 22 22 22 21 20 21 21 22 23 24 25 26 27 29 30 31 33 34 34 35 36 37 38 38 39 39 40 41 42 42 42 43
23 23 23 22 22 21 20 20 19 18 19 19 20 20 21 22 23 24 26 27 29 30 31 33 34 35 36 37 38 39 39 40 40 40 41 42 42 41
21 20 20 19 19 18 18 17 17 16 16 17 17 18 19 20 22 23 25 27 29 30 32 34 35 36 36 37 37 38 39 39 39 39 40 41 40 40
17 17 17 16 16 15 14 14 14 13 14 15 15 16 17 18 20 22 24 26 28 30 32 33 34 35 36 36 37 37 37 38 38 37 37 38 39 39
14 14 13 12 12 12 12 11 11 12 12 12 13 14 15 17 19 21 23 26 28 29 30 31 32 33 34 35 35 36 35 35 35 36 35 34 35 37
12 11 11 10 10 9 9 9 9 9 10 10 12 13 15 17 19 21 23 25 27 28 29 29 30 31 31 31 32 33 33 33 33 32 32 31 32 34
10 10 10 10 9 9 9 8 8 8 9 10 11 13 14 17 19 21 22 24 26 28 28 28 28 28 29 29 28 28 29 30 30 30 28 28 29 31
9 10 9 9 9 8 8 8 8 8 9 10 11 13 15 17 19 20 22 24 25 27 27 27 27 26 26 25 25 24 25 26 27 27 26 25 26 27
9 9 9 9 8 8 8 7 8 8 9 10 11 13 15 17 19 21 22 24 25 26 26 26 25 24 23 22 22 22 22 22 23 24 24 22 21 22
9 9 9 9 9 8 8 8 8 8 9 10 12 13 15 17 19 21 23 24 26 26 26 25 24 23 22 21 20 19 19 19 20 20 20 20 20 19
10 10 10 9 9 9 9 9 9 9 9 11 12 14 16 17 20 22 24 25 27 27 27 26 24 23 21 20 20 19 18 18 18 18 19 19 19 19
11 11 10 10 10 10 10 10 10 9 10 12 13 14 16 17 20 22 24 26 27 27 27 27 25 23 21 20 20 19 18 18 17 18 19 20 20 20
12 12 11 11 11 11 11 11 10 11 12 12 13 14 15 17 19 22 24 26 27 28 28 28 26 24 22 20 20 20 19 19 19 20 21 21 22 22
12 12 12 12 12 12 12 12 12 13 13 13 14 15 16 17 20 22 24 26 27 29 29 29 28 26 24 22 20 20 20 20 20 21 22 23 24 25
13 13 13 13 13 14 14 14 14 14 15 15 15 16 16 18 20 22 24 26 28 29 30 30 29 27 25 23 22 21 21 21 21 21 23 24 25 26
13 13 13 14 15 15 16 16 16 16 16 16 17 17 18 19 21 22 24 26 28 29 31 31 31 30 28 25 23 22 22 22 22 23 23 24 26 27
15 15 15 15 16 16 17 17 18 18 18 18 18 19 20 20 22 23 24 26 29 30 31 32 32 31 30 27 25 23 22 22 23 23 24 25 26 28
17 17 17 17 17 18 18 19 20 20 19 19 20 20 21 22 23 24 25 27 29 31 32 33 33 33 31 29 27 25 23 22 22 23 23 25 26 28
Wind_Direction
271 270 270 268 266 266 266 266 264 262 260 258 257 256 257 258 258 260 261 262 263 263 265 265 265 265 264 263 263 263 261 260 259 258 257 257 258 258
269 267 265 263 262 263 263 263 263 260 257 255 255 256 257 259 262 263 264 265 266 267 268 267 267 266 265 265 264 263 262 261 259 258 256 256 255 256
264 260 260 258 258 259 259 260 260 257 254 254 256 259 261 263 265 266 267 269 270 271 270 269 269 268 267 266 266 264 263 262 260 259 257 256 255 254
258 254 253 255 255 254 254 256 255 255 255 256 259 261 264 266 268 270 271 272 273 273 273 272 271 270 269 267 266 264 264 263 262 259 257 256 255 253
250 249 250 251 250 249 250 252 254 255 256 258 261 264 267 269 271 272 274 275 276 276 276 275 274 273 271 269 268 266 264 263 262 260 257 257 255 253
246 247 250 250 246 243 247 252 254 255 256 260 264 268 270 273 275 277 279 280 280 280 279 278 276 275 273 271 269 266 264 264 263 261 258 256 255 253
247 248 249 249 243 246 249 251 251 254 258 263 267 272 276 278 281 283 284 285 285 284 283 281 279 278 275 273 271 268 265 264 263 261 258 256 254 252
244 246 247 245 246 245 244 246 251 256 261 267 272 276 280 283 286 289 290 291 290 290 288 286 283 281 278 275 272 269 266 264 263 262 259 255 252 251
237 238 236 237 238 238 242 248 251 256 264 270 275 280 285 290 294 296 297 297 297 296 294 291 288 284 279 275 272 268 266 264 262 263 261 256 251 249
233 232 228 228 233 236 238 242 251 259 264 272 280 288 295 300 303 304 305 306 305 302 300 297 293 288 283 277 272 268 265 263 263 262 261 256 250 245
227 222 216 216 220 226 234 241 249 257 268 280 291 299 304 308 310 312 313 314 313 311 306 302 297 292 287 282 275 270 266 263 262 262 261 257 250 243
210 208 210 213 219 225 233 241 251 264 278 290 299 306 311 316 319 321 322 322 321 318 314 308 303 297 291 287 279 272 267 263 260 261 260 255 248 241
205 204 206 212 218 225 234 244 257 272 286 297 305 313 319 322 324 326 327 326 325 323 319 314 309 303 297 290 284 277 271 265 260 259 257 256 248 240
200 203 208 215 221 229 238 250 263 278 292 304 314 321 325 328 331 333 332 330 328 326 323 319 315 308 302 295 288 280 274 269 263 259 256 252 245 238
207 212 216 220 227 235 246 257 269 282 299 312 321 327 331 334 336 337 336 333 330 328 327 324 319 314 305 298 292 285 279 271 264 258 252 245 242 238
217 221 225 231 237 244 252 262 273 287 304 314 322 327 331 335 339 340 339 338 335 333 330 328 324 318 309 300 295 289 281 275 266 258 249 243 239 234
227 229 233 238 245 251 257 266 278 291 302 310 317 323 329 335 340 342 343 342 341 339 336 333 329 324 316 306 297 292 286 277 268 259 252 245 240 234
230 235 239 243 249 254 261 269 279 288 295 303 310 317 326 333 339 342 345 346 346 344 341 337 333 328 321 312 302 293 287 281 272 263 255 248 242 238
234 239 243 246 251 256 263 271 278 284 290 296 303 311 320 328 334 340 343 345 346 346 345 342 337 331 324 316 307 297 290 284 276 267 259 252 246 241
238 243 246 250 254 258 263 269 275 280 285 291 297 305 313 321 328 334 339 342 343 344 345 344 340 335 328 320 310 300 293 286 279 271 263 257 251 245
242 248 251 254 256 259 263 267 271 276 280 285 291 298 307 314 321 327 332 337 340 341 343 343 342 338 333 326 316 305 295 287 281 275 267 261 256 251
246 251 255 257 259 261 263 266 269 271 275 280 286 293 301 308 314 321 326 331 335 338 340 340 340 339 336 330 323 313 302 292 284 277 270 264 259 255
248 251 256 261 264 265 266 268 269 270 273 278 283 289 297 303 309 314 320 326 331 335 338 338 338 337 336 332 326 318 309 299 289 280 272 266 261 258
Height
5752 5752 5753 5754 5756 5757 5758 5759 5760 5760 5761 5762 5764 5765 5767 5768 5769 5770 5771 5772 5773 5773 5774 5774 5775 5775 5775 5775 5776 5776 5776 5776 5777 5778 5778 5780 5781 5783
5740 5741 5742 5744 5746 5748 5749 5750 5751 5752 5754 5755 5756 5758 5759 5760 5762 5763 5763 5764 5765 5765 5765 5765 5766 5766 5766 5766 5766 5766 5766 5766 5766 5767 5768 5769 5770 5772
5731 5732 5733 5735 5737 5740 5741 5742 5744 5745 5747 5748 5749 5751 5752 5753 5754 5755 5755 5756 5756 5756 5756 5756 5756 5756 5756 5755 5755 5755 5755 5755 5755 5755 5756 5757 5759 5761
5721 5722 5725 5727 5730 5732 5734 5736 5738 5739 5741 5742 5743 5744 5745 5746 5746 5747 5747 5747 5747 5746 5746 5745 5745 5745 5744 5744 5743 5743 5743 5743 5743 5743 5744 5746 5747 5748
5713 5715 5717 5720 5722 5725 5727 5729 5731 5733 5734 5735 5736 5737 5738 5739 5739 5739 5738 5738 5737 5736 5735 5735 5734 5733 5733 5732 5731 5731 5730 5730 5730 5730 5731 5732 5734 5736
5706 5708 5711 5713 5716 5718 5721 5723 5725 5726 5728 5729 5730 5731 5731 5731 5731 5730 5730 5729 5728 5727 5725 5724 5723 5722 5721 5720 5719 5718 5718 5717 5717 5717 5718 5719 5720 5722
5701 5703 5705 5707 5710 5712 5715 5717 5719 5720 5722 5723 5723 5724 5724 5723 5723 5722 5721 5720 5718 5717 5715 5713 5712 5710 5709 5707 5706 5705 5705 5705 5704 5704 5704 5705 5707 5709
5695 5697 5699 5702 5704 5707 5710 5712 5714 5715 5716 5717 5717 5717 5717 5717 5716 5714 5713 5711 5710 5708 5705 5703 5701 5699 5697 5695 5694 5693 5692 5692 5691 5691 5691 5692 5694 5696
5690 5693 5695 5698 5700 5703 5705 5707 5709 5710 5711 5712 5712 5712 5711 5710 5709 5707 5705 5703 5700 5697 5695 5692 5689 5687 5685 5683 5681 5680 5680 5679 5679 5679 5679 5679 5681 5684
5688 5690 5692 5694 5697 5699 5702 5703 5705 5706 5707 5707 5707 5706 5706 5704 5703 5701 5698 5695 5692 5689 5685 5682 5678 5675 5673 5671 5669 5668 5668 5668 5668 5667 5667 5668 5669 5672
5686 5687 5690 5692 5695 5697 5698 5700 5701 5702 5703 5702 5702 5701 5700 5698 5696 5694 5691 5688 5684 5680 5677 5673 5669 5666 5663 5660 5658 5657 5657 5657 5657 5657 5657 5657 5658 5661
5684 5686 5688 5690 5692 5694 5696 5697 5698 5699 5699 5698 5698 5697 5695 5693 5690 5688 5684 5681 5677 5673 5668 5665 5661 5657 5654 5651 5649 5648 5647 5647 5647 5648 5648 5648 5649 5651
5683 5685 5687 5689 5690 5692 5693 5694 5695 5695 5695 5695 5693 5692 5690 5688 5685 5682 5678 5675 5671 5666 5662 5658 5653 5650 5646 5643 5641 5640 5639 5638 5639 5639 5640 5640 5641 5643
5681 5683 5685 5687 5688 5689 5690 5691 5692 5692 5691 5690 5689 5687 5685 5683 5680 5676 5673 5669 5665 5661 5656 5651 5647 5643 5640 5637 5635 5633 5632 5631 5631 5632 5632 5633 5634 5636
5680 5681 5683 5684 5685 5687 5687 5688 5688 5688 5687 5686 5685 5683 5681 5678 5675 5671 5668 5664 5660 5655 5650 5646 5642 5638 5634 5631 5629 5627 5626 5625 5625 5625 5626 5627 5628 5630
5678 5679 5681 5682 5682 5683 5684 5685 5684 5684 5683 5682 5681 5679 5677 5674 5671 5667 5663 5659 5654 5650 5645 5641 5636 5632 5629 5626 5623 5621 5620 5619 5619 5620 5620 5622 5623 5625
5675 5676 5678 5679 5679 5680 5681 5681 5680 5680 5679 5678 5677 5675 5673 5670 5667 5663 5659 5655 5650 5645 5640 5636 5631 5627 5624 5621 5618 5616 5614 5614 5613 5614 5615 5616 5617 5619
5672 5673 5674 5675 5676 5676 5676 5677 5676 5676 5675 5674 5673 5671 5669 5666 5663 5659 5656 5651 5647 5642 5636 5631 5627 5623 5619 5616 5614 5611 5609 5608 5608 5608 5609 5610 5612 5613
5668 5669 5670 5671 5672 5672 5672 5672 5672 5672 5671 5670 5669 5667 5665 5662 5659 5656 5652 5648 5643 5638 5633 5628 5623 5618 5614 5611 5608 5606 5604 5603 5602 5602 5602 5604 5605 5607
5664 5665 5666 5667 5667 5667 5667 5667 5667 5667 5666 5665 5664 5662 5660 5658 5655 5652 5648 5644 5639 5634 5629 5624 5619 5614 5610 5607 5603 5601 5599 5597 5596 5596 5596 5596 5598 5599
5659 5660 5661 5662 5662 5663 5663 5663 5663 5662 5661 5660 5659 5658 5656 5653 5651 5648 5644 5640 5635 5631 5626 5621 5615 5610 5605 5601 5598 5595 5593 5591 5590 5589 5589 5589 5590 5591
5653 5655 5656 5656 5657 5657 5658 5658 5657 5657 5656 5655 5654 5652 5651 5648 5646 5643 5639 5635 5631 5626 5622 5616 5611 5606 5601 5597 5593 5589 5587 5584 5583 5582 5582 5582 5582 5583
5648 5649 5650 5650 5651 5651 5651 5651 5651 5651 5650 5649 5648 5647 5645 5643 5641 5638 5634 5630 5626 5622 5617 5612 5606 5601 5596 5592 5587 5584 5580 5578 5576 5575 5574 5574 5574 5574